EA7AZH-5 Weather Reports


Display with metric or nautical units.
time (UTC)temp
F
wind
direction
speed
MPH
gust
MPH
rain 1hr
in
rain 24hr
in
rain mn
in
humidity
%
barometer
mb
20260504034348 69 0.0 0.0 0.00 0.00 0.00 54 1011.3
20260504033348 69 0.0 0.0 0.00 0.00 0.00 54 1011.2
20260504032348 69 0.0 0.0 0.00 0.00 0.00 55 1011.4
20260504031348 70 0.0 0.0 0.00 0.00 0.00 53 1011.4
20260504030348 70 0.0 0.0 0.00 0.00 0.00 54 1011.4
20260504025348 70 0.0 0.0 0.00 0.00 0.00 55 1011.5
20260504024353 70 0.0 0.0 0.00 0.00 0.00 56 1011.6
20260504023348 70 0.0 0.0 0.00 0.00 0.00 56 1011.5
20260504022348 70 0.0 0.0 0.00 0.00 0.00 56 1011.5
20260504021347 70 0.0 0.0 0.00 0.00 0.00 56 1011.6
20260504020348 70 0.0 0.0 0.00 0.00 0.00 57 1011.6
20260504015348 70 0.0 0.0 0.00 0.00 0.00 57 1011.6
20260504014348 71 0.0 0.0 0.00 0.00 0.00 56 1011.6
20260504013348 71 0.0 0.0 0.00 0.00 0.00 57 1011.6
20260504012347 71 0.0 0.0 0.00 0.00 0.00 58 1011.8
20260504011353 72 0.0 0.0 0.00 0.00 0.00 57 1011.9
20260504010347 71 0.0 0.0 0.00 0.00 0.00 59 1012.0
20260504005348 71 0.0 0.0 0.00 0.00 0.00 59 1012.1
20260504004347 71 0.0 0.0 0.00 0.00 0.00 59 1012.1
20260504003347 72 0.0 0.0 0.00 0.00 0.00 58 1012.2
20260504002347 72 0.0 0.0 0.00 0.00 0.00 58 1012.2
20260504001352 72 0.0 0.0 0.00 0.00 0.00 57 1012.2
20260504000348 72 0.0 0.0 0.00 0.00 0.00 57 1012.3
20260503235347 72 0.0 0.0 0.00 0.00 0.00 57 1012.4
20260503234348 72 0.0 0.0 0.00 0.00 0.00 58 1012.4
20260503233347 72 0.0 0.0 0.00 0.00 0.00 57 1012.5
20260503232347 72 0.0 0.0 0.00 0.00 0.00 57 1012.5
20260503231347 72 0.0 0.0 0.00 0.00 0.00 56 1012.5
20260503230347 73 0.0 0.0 0.00 0.00 0.00 57 1012.5
20260503225347 73 0.0 0.0 0.00 0.00 0.00 58 1012.6
20260503224347 73 0.0 0.0 0.00 0.00 0.00 58 1012.6
20260503223347 73 0.0 0.0 0.00 0.00 0.00 57 1012.6
20260503222347 73 0.0 0.0 0.00 0.00 0.00 57 1012.6
20260503221347 73 0.0 0.0 0.00 0.00 0.00 57 1012.6
20260503220347 73 0.0 0.0 0.00 0.00 0.00 56 1012.7
20260503215347 73 0.0 0.0 0.00 0.00 0.00 56 1012.7
20260503214347 73 0.0 0.0 0.00 0.00 0.00 56 1012.7
20260503213347 73 0.0 0.0 0.00 0.00 0.00 57 1012.6
20260503212347 73 0.0 0.0 0.00 0.00 0.00 58 1012.7
20260503211347 74 0.0 0.0 0.00 0.00 0.00 57 1012.6
20260503210347 73 0.0 0.0 0.00 0.00 0.00 58 1012.4
20260503205347 74 0.0 0.0 0.00 0.00 0.00 59 1012.4
20260503204346 73 0.0 0.0 0.00 0.00 0.00 59 1012.4
20260503203347 72 0.0 0.0 0.00 0.00 0.00 60 1012.2
20260503202346 72 0.0 0.0 0.00 0.00 0.00 61 1012.2
20260503201346 71 0.0 0.0 0.00 0.00 0.00 61 1012.0
20260503200347 72 0.0 0.0 0.00 0.00 0.00 61 1011.9
20260503195347 72 0.0 0.0 0.00 0.00 0.00 61 1011.7
20260503194353 72 0.0 0.0 0.00 0.00 0.00 61 1011.7
20260503193346 72 0.0 0.0 0.00 0.00 0.00 60 1011.6
20260503192348 72 0.0 0.0 0.00 0.00 0.00 58 1011.6
20260503191346 76 0.0 0.0 0.00 0.00 0.00 52 1011.4
20260503190346 75 0.0 0.0 0.00 0.00 0.00 50 1011.4
20260503185347 76 0.0 0.0 0.00 0.00 0.00 51 1011.1
20260503184347 75 0.0 0.0 0.00 0.00 0.00 53 1011.0
20260503183347 77 0.0 0.0 0.00 0.00 0.00 51 1011.0
20260503182346 77 0.0 0.0 0.00 0.00 0.00 50 1011.1
20260503181346 77 0.0 0.0 0.00 0.00 0.00 50 1011.0
20260503180346 77 0.0 0.0 0.00 0.00 0.00 49 1011.2
20260503175346 76 0.0 0.0 0.00 0.00 0.00 49 1011.4
20260503174346 77 0.0 0.0 0.00 0.00 0.00 50 1011.5
20260503173346 78 0.0 0.0 0.00 0.00 0.00 48 1011.4
20260503172346 77 0.0 0.0 0.00 0.00 0.00 50 1011.6
20260503171346 77 0.0 0.0 0.00 0.00 0.00 50 1011.6
20260503170346 78 0.0 0.0 0.00 0.00 0.00 49 1011.7
20260503150346 78 0.0 0.0 0.00 0.00 0.00 51 1012.5
20260503131345 75 0.0 0.0 0.00 0.00 0.00 55 1013.8
20260503130351 75 0.0 0.0 0.00 0.00 0.00 55 1013.8
20260503110345 77 0.0 0.0 0.00 0.00 0.00 50 1014.7
20260503090345 75 0.0 0.0 0.00 0.00 0.00 54 1014.7
20260503081345 74 0.0 0.0 0.00 0.00 0.00 56 1014.5
20260503080345 74 0.0 0.0 0.00 0.00 0.00 57 1014.6
20260503072349 73 0.0 0.0 0.00 0.00 0.00 59 1014.4
20260503071344 73 0.0 0.0 0.00 0.00 0.00 59 1014.2
20260503070344 74 0.0 0.0 0.00 0.00 0.00 57 1014.2
20260503054349 72 0.0 0.0 0.00 0.00 0.00 56 1013.4
20260503053344 72 0.0 0.0 0.00 0.00 0.00 56 1013.2
20260503052344 73 0.0 0.0 0.00 0.00 0.00 56 1013.3
20260503051344 72 0.0 0.0 0.00 0.00 0.00 57 1013.1
20260503050349 73 0.0 0.0 0.00 0.00 0.00 56 1013.1
20260503045344 72 0.0 0.0 0.00 0.00 0.00 57 1013.1
20260503044344 72 0.0 0.0 0.00 0.00 0.00 57 1013.1
20260503043344 72 0.0 0.0 0.00 0.00 0.00 57 1013.4
20260503042344 73 0.0 0.0 0.00 0.00 0.00 56 1013.6
20260503041344 73 0.0 0.0 0.00 0.00 0.00 56 1013.6
20260503040344 73 0.0 0.0 0.00 0.00 0.00 56 1013.6
20260503035349 73 0.0 0.0 0.00 0.00 0.00 55 1013.7